Location: Unspecified
(35.6961°N, 0.0000°E)
Time: 00:36:17
(UTC+00:00)

Courier 1B Rocket - Pass Details

Date: 27 May 2019
Orbit: 920 x 1202 km, 28.2° (Epoch: 16 June)

Event Time Altitude Azimuth Distance (km) Brightness Sun altitude
Rises 20:44:03 0° 263° (W) 4,090 8.8 -16.9°
Reaches altitude 10° 20:48:22 10° 242° (WSW) 3,102 7.8 -17.5°
Maximum altitude 20:52:25 15° 210° (SSW) 2,698 7.2 -18.1°
Enters shadow 20:55:28 12° 184° (S) 2,888 7.1 -18.6°
